NOAA 11

Satellite information

Favourite Embed

Satellite Type and Status

PAYLOADIN ORBIT

Key statistics

Satellite NOAA 11 at a glance.

Uptime

13435

Days in orbit

Revolutions

≈ 14.2

Per day

Orbit

SSO

Sun Synchronous Orbit

Inclination

98.6

Latest

Satellite identification and parameters

Extended collection of information and parameters for NOAA 11.

Object identification

Identified? True

Debris? False

Object name: NOAA 11

International designator: 1988-089A

Object number (NORAD): 19531

Object ID (CCSDS): 19531

Country: UNITED STATES OF AMERICA (US)

Current information (Y/N): Y

RCS size: LARGE

Orbital parameters

Period: 101.713 minutes

Inclination: 98.572 deg

SMA: 7217.895 km

Apoapsis: 847.285 km

Periapsis: 832.234 km

RAAN: 139.4056 deg

Eccentricy: 0.0010426

Argument of periapsis: 208.1601 deg

Mean anomaly: 151.9011 deg

Mean motion: 14.15751191 rev/day

Mean motion (dot): 0.00000025 rev/day2

B* drag term: 0.000034344 1/REarth

Two-line elements (TLE)

Creation date: July 5, 2025, 5:45 p.m.

Reference frame: TEME

Reference center: EARTH

Epoch: July 5, 2025, 12:07 p.m. UTC

TLE line 0: 0 NOAA 11

TLE line 1: 1 19531U 88089A 25186.50510765 .00000025 00000-0 34344-4 0 9992

TLE line 2: 2 19531 98.5720 139.4056 0010426 208.1601 151.9011 14.15751191898425

Live tracking on map

Real-time ground track for satellite NOAA 11.

In-orbit conjunctions

A list of the most updated potential collisions computed for object NOAA 11.

Target Orbit TCA Probability of collision Miss distance Type
CZ-6A DEB LEO 2025-06-25 11:54:36 0.00100638 222.0 (m) DEBRIS
THORAD AGENA D DEB SSO 2025-06-15 04:56:43 0.000391218 747.0 (m) DEBRIS
SL-24 DEB SSO 2025-06-13 01:58:13 0.0002450955 606.0 (m) DEBRIS
METEOR 2-8 DEB LEO 2025-04-19 07:30:43 0.0001412932 377.0 (m) DEBRIS
METEOR 2-8 DEB LEO 2025-04-19 04:07:06 0.0001003714 412.0 (m) DEBRIS

Associated space launch

Fourth generation NOAA meteorological satellite

NOAA 11 was lifted into orbit during the mission ‘Atlas E | NOAA 11’, on board a Atlas E space rocket.

The launch took place on Sept. 24, 1988, 10:02 a.m. from Space Launch Complex 3W.

For more information about the launch, click the button.

Launch to space Atlas E | NOAA 11
Atlas E | NOAA 11

Agency: N/A

Status: Launch Successful

Launch date: Sept. 24, 1988, 10:02 a.m. UTC

Rocket: Atlas E

Launch pad: Space Launch Complex 3W

Location: Vandenberg SFB, CA, USA

...

Latest news about this satellite

There are no fresh news available about this satellite. Check back as we update our databases every day.


Newsletter sign-up

Weekly statistics, charts and insights to help you stay on top of the space industry.